DECAYED

STARLINK-1109, 44945 (Decayed)

Orbit data source: Space-Track

STARLINK-1109, 44945 was a payload satellite owned by SpaceX/Seattle (US) in LEO that was launched on Tue, 07 Jan 2020 UTC via an FALCON 9 launch vehicle from the Air Force Eastern Test Range (AFETR). Payload-class satellites include a variety of spacecraft equipped with specific instruments for various scientific and technological missions. These include communications satellites like Starlink; space stations such as the ISS; scientific satellites like the Hubble; Earth observation satellites from companies like Planet Labs, Umbra, and HawkEye 360; GPS; miniature CubeSats for education and research; and military/defense satellites.

Not visible in the next 10 days
Identifier
44945, 2020-001AH
Orbit
Decayed
Country
Flag of USUS
Related business
Manufacturer
SpaceX/Seattle
Mission
Decayed Commercial Communications
Bus & Motor
STARLINK, Unknown motor
Mass
260 kg wet, ~248 kg dry
Launch date (UTC)
2020-01-07 (6 years ago)
Launch vehicle
FALCON 9
Launch site
Air Force Eastern Test Range (AFETR)
Object type
Payload
Rocket body
Debris
Shape & HBR
Box + 1 Pan, 4.4 m
Radar Cross Section
13.562 m², Large (>1 m²)

Expand to show TLE details & history
Last TLE update: 4 months ago

TLE from 4 months ago
0 STARLINK-1109
1 44945U 20001AH  25148.92206447  .20853052  12589-4  30558-3 0  9991
2 44945  53.0165  73.5665 0007194 267.8124 136.5124 16.48296294298474
Epoch: 2025-05-28T22:07Z
TLE epoch observation values (Epoch: 2025-05-28T22:07:46.37Z)
Latitude
34.08187°
Longitude
-114.63754°
Altitude
149.617 km
Speed
7.819 km/s
True Right ascension
06h 56m 01s
True Declination
33° 54' 27"
Sunlit
Object was in daylight at epoch
Visualization orbit readout
Latitude
Unknown
Longitude
Unknown
Altitude
Unknown
Speed
Unknown
Apparent Right ascension
Unknown
Apparent Declination
Unknown
Sunlit
N/A
Visualization observer readout
Local Sidereal Time
02:38:52
Azimuth
Unknown
Elevation
Unknown
Doppler factor
Unknown
Orbital elements
Apogee altitude
148.811 km
Perigee altitude
139.427 km
Semi-major axis
6,522.256 km
Eccentricity
0.00072
Inclination
53.0165°
RAAN
73.5665°
Arg. of periapsis
267.8124°
True anomaly
136.5691°
Mean anomaly
136.5124°
Eccentric anomaly
136.54075°
Mean motion
4.12047 °/min
Orbital period
87.37 mins
BSTAR
0.00030558
Loading maneuver chart data...
Computing Atmospheric mass density...

Documentation

Showing up to 5 results
|